Location: Observatoire
(46.1952°N, 5.3391°E)
Time: 02:52:10
(UTC+01:00)

Altair - Pass Details

Date: 20 February 2026
Orbit: 1502 x 1682 km, 47.2° (Epoch: 13 March)

Event Time Altitude Azimuth Distance (km) Brightness Sun altitude
Rises 03:07:08 0° 199° (SSW) 4,622 - -44.6°
Reaches altitude 10° 03:10:39 10° 188° (S) 3,642 - -44.2°
Maximum altitude 03:18:05 29° 133° (SE) 2,488 - -43.2°
Exits shadow 03:18:58 28° 124° (SE) 2,512 8.6 -43.0°
Drops below altitude 10° 03:25:36 10° 78° (ENE) 3,701 10.0 -42.1°
Sets 03:29:11 0° 68° (ENE) 4,709 10.9 -41.6°
